Meath Environmental Platform

Observations for Trim Market St

Time AQI Temp °C Hum % Pres Pa CO μg/m³ H₂S μg/m³ NO μg/m³ NO₂ μg/m³ O₃ μg/m³ SO₂ μg/m³ PM1 μg/m³ PM2.5 μg/m³ PM10 μg/m³
Monday 13 July 2026
09:45 1 30.4 38 65,521 0 0 0 0 32.97 0 1.43 4.02 4.27
09:44 1 30.3 38 65,481 0 0 0 0 30.6 0 1.43 4.55 5.01
09:43 1 30.3 38 65,483 0 0 0 0 30.89 0 2.14 5.08 7.53
09:42 1 30.3 38 65,487 0 0 0 0 25.79 0 1.43 4.02 4.42
09:41 1 30.2 38 65,468 0 0 0 0 28.63 0 0.71 3.48 3.82
09:40 1 30.1 39 65,441 0 0 0 0 27.58 0 1.43 4 4.4
09:39 1 30.1 38 65,433 0 0 0 0 27.13 0 2.14 4.54 5.08
09:38 1 30.1 38 65,396 0 0 0 0 31.15 0 1.43 4.01 5.08
09:33 1 29.9 39 65,345 0 0 0 0 28.7 0 2.14 4.53 4.99
09:32 1 29.9 39 65,404 0 0 0 0 16.13 0 2.14 5.06 6.71
09:30 1 29.9 39 65,390 0 0 0 0 18.48 0 1.43 4 4.4
09:24 1 29.9 39 65,370 0 0 0 0 17.7 0 2.14 5.03 5.91
09:17 1 29.7 41 65,056 0 0 0 0 18.11 0 1.43 4.43 4.88
09:16 1 29.5 41 64,987 0 0 0 0 14.35 0 0 2.85 3.13
09:15 1 29.5 41 64,935 0 0 0 0 13.7 0 0.71 3.36 3.53
09:14 1 29.4 41 64,866 0 0 0 0 14.38 0 2.14 4.93 5.93
09:13 1 29.3 42 64,780 0 0 0 0 13.95 0 2.14 4.38 5.94
09:12 1 29.3 42 64,655 0 0 0 0 10.53 0 0.71 3.84 4.36
09:11 1 29.2 42 64,497 0 0 0 0 10.92 0 2.14 4.35 4.37
09:10 1 29.1 43 64,382 0 0 0 0 19.61 0 1.43 4.35 4.37